Location: Gro� Glienicke
(52.4675°N, 13.1079°E)
Time: 17:36:05
(UTC+00:00)

USA 215 - Pass Details

Date: 06 July 2020
Orbit: 1102 x 1106 km, 123.0° (Epoch: 08 August)

Event Time Altitude Azimuth Distance (km) Brightness Sun altitude
Rises 21:56:44 0° 61° (ENE) 3,927 6.3 -13.2°
Reaches altitude 10° 21:59:14 10° 63° (ENE) 2,967 5.7 -13.3°
Maximum altitude 22:05:48 80° 150° (SSE) 1,124 3.2 -13.6°
Drops below altitude 10° 22:12:21 10° 238° (WSW) 2,957 5.3 -13.8°
Sets 22:14:50 0° 239° (WSW) 3,913 6.0 -13.9°
